Location: Chandrammap?lem
(16.9200°N, 81.0051°E)
Time: 21:09:31
(UTC+00:00)

Geosat - Pass Details

Date: 29 May 2024
Orbit: 760 x 763 km, 108.1° (Epoch: 16 June)

Event Time Altitude Azimuth Distance (km) Brightness Sun altitude
Rises 23:24:28 0° 164° (SSE) 3,207 7.1 -9.0°
Reaches altitude 10° 23:26:44 10° 166° (SSE) 2,283 6.3 -8.5°
Maximum altitude 23:31:40 66° 248° (WSW) 827 4.0 -7.4°
Drops below altitude 10° 23:36:37 10° 331° (NNW) 2,289 6.4 -6.3°
Sets 23:38:55 0° 334° (NNW) 3,217 7.2 -5.8°
